Pagosa Springs, CO

1:40 PM MST on February 27, 2017 (GMT -0700)
Pagosa Springs

Weather History for KPSO - July, 2013

Change the Weather History Date:

Monday, July 29, 2013

  Actual Average (KE33) Record (KE33)
Temperature  
Mean Temperature 66 °F -  
Max Temperature 79 °F 71 °F 87 °F (2002)
Min Temperature 52 °F 54 °F 51 °F (2002)
Growing Degree Days 16 (Base 50)    
Moisture  
Dew Point 47 °F    
Average Humidity 60    
Maximum Humidity 97    
Minimum Humidity 18    
Precipitation  
Precipitation 0.00 in - - ()
Sea Level Pressure  
Sea Level Pressure 30.31 in    
Wind  
Wind Speed 3 mph (WSW)    
Max Wind Speed 20 mph    
Max Gust Speed 28 mph    
Visibility 10 miles    
Events Thunderstorm    
Averages and records for this station are not official NWS values.
T = Trace of Precipitation, MM = Missing Value Source: NWS Daily Summary

Daily Weather History Graph

Daily Weather History Graph

Search for Another Location

Airport or City:

Trip Planner

Search our weather history database for the weather conditions in past years. The results will help you decide how hot, cold, wet, or windy it might be!

Date:

Astronomy

Jul. 29, 2013 Rise Set
Actual Time 6:10 AM MDT 8:18 PM MDT
Civil Twilight 5:41 AM MDT 8:47 PM MDT
Nautical Twilight 5:05 AM MDT 9:22 PM MDT
Astronomical Twilight 4:27 AM MDT 10:01 PM MDT
Moon No Moon Rise 1:43 PM MDT (7/29)
Length of Visible Light 15h 05m
Length of Day
14h 07m
Waning Gibbous, 50% of the Moon is Illuminated
Jul 29
Waning Gibbous
Aug 6
New
Aug 14
First Quarter
Aug 20
Full
Aug 28
Last Quarter

Hourly Weather History & Observations

Time (MDT) Temp. Dew Point Humidity Pressure Visibility Wind Dir Wind Speed Gust Speed Precip Events Conditions
12:15 AM 54.9 °F 53.8 °F 96% 30.26 in 10.0 mi Calm Calm - N/A   Overcast
12:35 AM 55.4 °F 54.1 °F 96% 30.27 in 10.0 mi Calm Calm - N/A   Overcast
12:55 AM 55.4 °F 54.1 °F 96% 30.27 in 10.0 mi Calm Calm - N/A   Overcast
1:15 AM 55.4 °F 54.5 °F 97% 30.27 in 10.0 mi Calm Calm - N/A Thunderstorm Overcast
1:55 AM 55.9 °F 54.5 °F 95% 30.26 in 10.0 mi East 3.5 mph - N/A   Overcast
2:15 AM 54.7 °F 53.8 °F 97% 30.26 in 10.0 mi Calm Calm - N/A   Mostly Cloudy
2:35 AM 54.5 °F 53.6 °F 97% 30.26 in 10.0 mi WNW 3.5 mph - N/A   Mostly Cloudy
2:55 AM 54.5 °F 53.6 °F 97% 30.26 in 10.0 mi Calm Calm - N/A   Mostly Cloudy
3:15 AM 55.4 °F 54.5 °F 97% 30.25 in 10.0 mi Calm Calm - N/A   Overcast
3:35 AM 55.4 °F 53.6 °F 94% 30.24 in 10.0 mi Calm Calm - N/A   Mostly Cloudy
3:55 AM 54.3 °F 53.4 °F 97% 30.24 in 7.0 mi Calm Calm - N/A   Scattered Clouds
4:15 AM 53.8 °F 53.1 °F 97% 30.25 in 10.0 mi Calm Calm - N/A   Mostly Cloudy
4:35 AM 54.3 °F 53.6 °F 97% 30.25 in 10.0 mi Calm Calm - N/A   Mostly Cloudy
4:55 AM 53.8 °F 52.9 °F 97% 30.25 in 10.0 mi Calm Calm - N/A   Mostly Cloudy
5:15 AM 52.7 °F 52.0 °F 97% 30.26 in 10.0 mi Calm Calm - N/A   Scattered Clouds
5:35 AM 52.7 °F 52.0 °F 97% 30.26 in 10.0 mi Calm Calm - N/A   Scattered Clouds
5:55 AM 52.0 °F 51.3 °F 97% 30.27 in 10.0 mi Calm Calm - N/A   Mostly Cloudy
6:15 AM 53.6 °F 52.7 °F 97% 30.28 in 10.0 mi Calm Calm - N/A   Overcast
6:35 AM 53.6 °F 52.7 °F 97% 30.28 in 10.0 mi Calm Calm - N/A   Mostly Cloudy
6:55 AM 53.8 °F 52.9 °F 97% 30.29 in 10.0 mi Calm Calm - N/A   Scattered Clouds
7:15 AM 54.5 °F 53.1 °F 95% 30.29 in 10.0 mi Calm Calm - N/A   Scattered Clouds
7:35 AM 55.4 °F 53.1 °F 92% 30.30 in 10.0 mi Calm Calm - N/A   Clear
7:55 AM 57.2 °F 53.4 °F 87% 30.30 in 10.0 mi NE 4.6 mph - N/A   Clear
8:15 AM 57.9 °F 53.1 °F 84% 30.30 in 10.0 mi Calm Calm - N/A   Clear
8:35 AM 59.2 °F 53.2 °F 81% 30.30 in 10.0 mi East 3.5 mph - N/A   Clear
8:55 AM 60.3 °F 52.9 °F 77% 30.31 in 10.0 mi Calm Calm - N/A   Clear
9:15 AM 60.4 °F 52.9 °F 76% 30.31 in 10.0 mi Calm Calm - N/A   Clear
9:35 AM 61.7 °F 52.0 °F 70% 30.31 in 10.0 mi Calm Calm - N/A   Clear
9:55 AM 63.1 °F 50.4 °F 63% 30.32 in 10.0 mi Calm Calm - N/A   Clear
10:15 AM 64.0 °F 50.9 °F 62% 30.31 in 10.0 mi Calm Calm - N/A   Clear
10:35 AM 65.7 °F 50.4 °F 58% 30.32 in 10.0 mi SW 6.9 mph - N/A   Clear
10:55 AM 67.3 °F 49.5 °F 53% 30.32 in 10.0 mi WSW 8.1 mph - N/A   Clear
11:15 AM 68.0 °F 48.9 °F 50% 30.32 in 10.0 mi SW 10.4 mph - N/A   Clear
11:35 AM 69.4 °F 48.7 °F 48% 30.32 in 10.0 mi SSW 9.2 mph - N/A   Scattered Clouds
11:55 AM 70.0 °F 47.8 °F 45% 30.32 in 10.0 mi SW 6.9 mph 17.3 mph N/A   Scattered Clouds
12:15 PM 70.9 °F 48.0 °F 44% 30.31 in 10.0 mi SW 8.1 mph 17.3 mph N/A   Scattered Clouds
12:35 PM 71.4 °F 48.6 °F 44% 30.31 in 10.0 mi SW 6.9 mph 19.6 mph N/A   Scattered Clouds
12:55 PM 73.0 °F 48.2 °F 41% 30.31 in 10.0 mi WSW 15.0 mph 19.6 mph N/A   Scattered Clouds
1:15 PM 73.4 °F 47.1 °F 39% 30.30 in 10.0 mi SW 13.8 mph 23.0 mph N/A   Scattered Clouds
1:35 PM 73.8 °F 44.6 °F 35% 30.30 in 10.0 mi WSW 16.1 mph 27.6 mph N/A Thunderstorm Thunderstorm
1:55 PM 73.9 °F 43.9 °F 34% 30.31 in 10.0 mi SW 12.7 mph 24.2 mph N/A Thunderstorm Mostly Cloudy
2:15 PM 74.3 °F 41.9 °F 31% 30.31 in 10.0 mi WSW 19.6 mph 24.2 mph N/A   Scattered Clouds
2:35 PM 73.6 °F 41.0 °F 31% 30.31 in 10.0 mi SW 8.1 mph 16.1 mph N/A Thunderstorm Scattered Clouds
2:55 PM 75.0 °F 42.8 °F 32% 30.31 in 10.0 mi WSW 8.1 mph 16.1 mph N/A   Clear
3:15 PM 77.0 °F 40.6 °F 27% 30.30 in 10.0 mi West 12.7 mph 18.4 mph N/A   Scattered Clouds
3:35 PM 76.5 °F 40.3 °F 27% 30.30 in 10.0 mi SSW 15.0 mph 20.7 mph N/A   Scattered Clouds
3:55 PM 77.2 °F 40.1 °F 26% 30.29 in 10.0 mi SW 16.1 mph 20.7 mph N/A   Scattered Clouds
4:15 PM 77.4 °F 38.7 °F 25% 30.29 in 10.0 mi WSW 13.8 mph 17.3 mph N/A   Scattered Clouds
4:35 PM 77.9 °F 37.2 °F 23% 30.29 in 10.0 mi SW 11.5 mph 20.7 mph N/A   Scattered Clouds
4:55 PM 78.4 °F 36.9 °F 22% 30.29 in 10.0 mi WSW 13.8 mph 21.9 mph N/A   Scattered Clouds
5:15 PM 79.3 °F 35.1 °F 20% 30.28 in 10.0 mi WSW 16.1 mph 21.9 mph N/A   Scattered Clouds
5:35 PM 78.1 °F 30.6 °F 18% 30.29 in 10.0 mi WSW 18.4 mph 24.2 mph N/A   Scattered Clouds
5:55 PM 75.7 °F 39.2 °F 27% 30.31 in 10.0 mi NW 11.5 mph 24.2 mph N/A   Mostly Cloudy
6:15 PM 73.8 °F 39.6 °F 29% 30.31 in 10.0 mi NW 12.7 mph 18.4 mph N/A   Scattered Clouds
6:35 PM 75.4 °F 37.0 °F 25% 30.31 in 10.0 mi NW 11.5 mph 16.1 mph N/A   Scattered Clouds
6:55 PM 75.6 °F 36.3 °F 24% 30.32 in 10.0 mi NW 8.1 mph - N/A Thunderstorm Scattered Clouds
7:15 PM 74.7 °F 36.1 °F 25% 30.32 in 10.0 mi WNW 10.4 mph - N/A   Scattered Clouds
7:35 PM 73.9 °F 37.0 °F 26% 30.32 in 10.0 mi NW 4.6 mph - N/A   Clear
7:55 PM 72.9 °F 37.6 °F 28% 30.33 in 10.0 mi WNW 6.9 mph - N/A   Clear
8:15 PM 70.9 °F 37.4 °F 29% 30.34 in 10.0 mi West 8.1 mph - N/A   Scattered Clouds
8:35 PM 70.7 °F 37.9 °F 30% 30.34 in 10.0 mi WSW 4.6 mph - N/A Thunderstorm Thunderstorm
8:55 PM 68.2 °F 40.5 °F 36% 30.35 in 10.0 mi West 3.5 mph - N/A   Clear
9:15 PM 67.1 °F 39.7 °F 37% 30.36 in 10.0 mi NW 3.5 mph - N/A   Clear
9:35 PM 65.7 °F 42.4 °F 43% 30.38 in 10.0 mi Calm Calm - N/A   Clear
9:55 PM 60.8 °F 45.5 °F 57% 30.38 in 10.0 mi Calm Calm - N/A   Clear
10:15 PM 61.0 °F 44.8 °F 55% 30.39 in 10.0 mi Calm Calm - N/A   Clear
10:35 PM 60.1 °F 45.0 °F 57% 30.39 in 10.0 mi Calm Calm - N/A   Clear
10:55 PM 58.1 °F 45.5 °F 63% 30.39 in 10.0 mi Calm Calm - N/A   Clear
11:15 PM 57.6 °F 46.0 °F 65% 30.40 in 10.0 mi Calm Calm - N/A   Clear
11:35 PM 57.9 °F 44.4 °F 61% 30.41 in 10.0 mi Calm Calm - N/A   Clear
11:55 PM 56.7 °F 44.2 °F 63% 30.41 in 10.0 mi Calm Calm - N/A   Clear